Year,Month,Day,Hour,Minute,Value (Times are PST for temperature in C)
2008,08,31,00,00,8.40
2008,08,31,00,01,8.40
2008,08,31,00,02,8.40
2008,08,31,00,03,8.40
2008,08,31,00,04,8.30
2008,08,31,00,05,8.30
2008,08,31,00,06,8.30
2008,08,31,00,07,8.30
2008,08,31,00,08,8.30
2008,08,31,00,09,8.30
2008,08,31,00,10,8.30
2008,08,31,00,11,8.30
2008,08,31,00,12,8.30
2008,08,31,00,13,8.30
2008,08,31,00,14,8.30
2008,08,31,00,15,8.30
2008,08,31,00,16,8.30
2008,08,31,00,17,8.30
2008,08,31,00,18,8.30
2008,08,31,00,19,8.30
2008,08,31,00,20,8.30
2008,08,31,00,21,8.30
2008,08,31,00,22,8.30
2008,08,31,00,23,8.30
2008,08,31,00,24,8.30
2008,08,31,00,25,8.40
2008,08,31,00,26,8.50
2008,08,31,00,27,8.60
2008,08,31,00,28,8.70
2008,08,31,00,29,8.80
2008,08,31,00,30,9.00
2008,08,31,00,31,9.10
2008,08,31,00,32,9.20
2008,08,31,00,33,9.30
2008,08,31,00,34,9.40
2008,08,31,00,35,9.50
2008,08,31,00,36,9.60
2008,08,31,00,37,9.70
2008,08,31,00,38,9.70
2008,08,31,00,39,9.90
2008,08,31,00,40,10.00
2008,08,31,00,41,10.10
2008,08,31,00,42,10.20
2008,08,31,00,43,10.20
2008,08,31,00,44,10.30
2008,08,31,00,45,10.30
2008,08,31,00,46,10.40
2008,08,31,00,47,10.40
2008,08,31,00,48,10.50
2008,08,31,00,49,10.60
2008,08,31,00,50,10.60
2008,08,31,00,51,10.70
2008,08,31,00,52,10.80
2008,08,31,00,53,10.90
2008,08,31,00,54,10.90
2008,08,31,00,55,11.00
2008,08,31,00,56,11.00
2008,08,31,00,57,11.10
2008,08,31,00,58,11.10
2008,08,31,00,59,11.10
2008,08,31,01,00,11.10
2008,08,31,01,01,11.10
2008,08,31,01,02,11.10
2008,08,31,01,03,11.10
2008,08,31,01,04,11.10
2008,08,31,01,05,11.10
2008,08,31,01,06,11.10
2008,08,31,01,07,11.10
2008,08,31,01,08,11.00
2008,08,31,01,09,11.00
2008,08,31,01,10,10.90
2008,08,31,01,11,10.90
2008,08,31,01,12,10.90
2008,08,31,01,13,10.90
2008,08,31,01,14,10.90
2008,08,31,01,15,10.80
2008,08,31,01,16,10.80
2008,08,31,01,17,10.80
2008,08,31,01,18,10.70
2008,08,31,01,19,10.60
2008,08,31,01,20,10.60
2008,08,31,01,21,10.50
2008,08,31,01,22,10.40
2008,08,31,01,23,10.40
2008,08,31,01,24,10.30
2008,08,31,01,25,10.30
2008,08,31,01,26,10.30
2008,08,31,01,27,10.20
2008,08,31,01,28,10.20
2008,08,31,01,29,10.20
2008,08,31,01,30,10.20
2008,08,31,01,31,10.10
2008,08,31,01,32,10.10
2008,08,31,01,33,10.10
2008,08,31,01,34,10.00
2008,08,31,01,35,10.00
2008,08,31,01,36,9.90
2008,08,31,01,37,9.90
2008,08,31,01,38,9.90
2008,08,31,01,39,9.90
2008,08,31,01,40,9.80
2008,08,31,01,41,9.80
2008,08,31,01,42,9.80
2008,08,31,01,43,9.80
2008,08,31,01,44,9.80
2008,08,31,01,45,9.80
2008,08,31,01,46,9.80
2008,08,31,01,47,9.70
2008,08,31,01,48,9.70
2008,08,31,01,49,9.70
2008,08,31,01,50,9.70
2008,08,31,01,51,9.70
2008,08,31,01,52,9.70
2008,08,31,01,53,9.60
2008,08,31,01,54,9.60
2008,08,31,01,55,9.60
2008,08,31,01,56,9.60
2008,08,31,01,57,9.60
2008,08,31,01,58,9.50
2008,08,31,01,59,9.50
2008,08,31,02,00,9.50
2008,08,31,02,01,9.40
2008,08,31,02,02,9.40
2008,08,31,02,03,9.40
2008,08,31,02,04,9.40
2008,08,31,02,05,9.30
2008,08,31,02,06,9.30
2008,08,31,02,07,9.30
2008,08,31,02,08,9.20
2008,08,31,02,09,9.20
2008,08,31,02,10,9.20
2008,08,31,02,11,9.20
2008,08,31,02,12,9.10
2008,08,31,02,13,9.10
2008,08,31,02,14,9.10
2008,08,31,02,15,9.00
2008,08,31,02,16,9.00
2008,08,31,02,17,8.90
2008,08,31,02,18,8.90
2008,08,31,02,19,8.90
2008,08,31,02,20,8.90
2008,08,31,02,21,8.90
2008,08,31,02,22,8.80
2008,08,31,02,23,8.80
2008,08,31,02,24,8.80
2008,08,31,02,25,8.80
2008,08,31,02,26,8.80
2008,08,31,02,27,8.80
2008,08,31,02,28,8.70
2008,08,31,02,29,8.70
2008,08,31,02,30,8.70
2008,08,31,02,31,8.70
2008,08,31,02,32,8.70
2008,08,31,02,33,8.70
2008,08,31,02,34,8.70
2008,08,31,02,35,8.70
2008,08,31,02,36,8.70
2008,08,31,02,37,8.70
2008,08,31,02,38,8.70
2008,08,31,02,39,8.70
2008,08,31,02,40,8.70
2008,08,31,02,41,8.70
2008,08,31,02,42,8.70
2008,08,31,02,43,8.70
2008,08,31,02,44,8.60
2008,08,31,02,45,8.60
2008,08,31,02,46,8.60
2008,08,31,02,47,8.60
2008,08,31,02,48,8.60
2008,08,31,02,49,8.60
2008,08,31,02,50,8.60
2008,08,31,02,51,8.50
2008,08,31,02,52,8.50
2008,08,31,02,53,8.50
2008,08,31,02,54,8.50
2008,08,31,02,55,8.40
2008,08,31,02,56,8.40
2008,08,31,02,57,8.40
2008,08,31,02,58,8.40
2008,08,31,02,59,8.40
2008,08,31,03,00,8.40
2008,08,31,03,01,8.30
2008,08,31,03,02,8.30
2008,08,31,03,03,8.30
2008,08,31,03,04,8.30
2008,08,31,03,05,8.30
2008,08,31,03,06,8.30
2008,08,31,03,07,8.30
2008,08,31,03,08,8.20
2008,08,31,03,09,8.20
2008,08,31,03,10,8.20
2008,08,31,03,11,8.20
2008,08,31,03,12,8.20
2008,08,31,03,13,8.20
2008,08,31,03,14,8.20
2008,08,31,03,15,8.10
2008,08,31,03,16,8.10
2008,08,31,03,17,8.10
2008,08,31,03,18,8.10
2008,08,31,03,19,8.10
2008,08,31,03,20,8.10
2008,08,31,03,21,8.10
2008,08,31,03,22,8.10
2008,08,31,03,23,8.10
2008,08,31,03,24,8.10
2008,08,31,03,25,8.00
2008,08,31,03,26,8.00
2008,08,31,03,27,8.00
2008,08,31,03,28,8.00
2008,08,31,03,29,8.00
2008,08,31,03,30,8.00
2008,08,31,03,31,8.00
2008,08,31,03,32,8.00
2008,08,31,03,33,8.00
2008,08,31,03,34,8.00
2008,08,31,03,35,8.00
2008,08,31,03,36,8.00
2008,08,31,03,37,8.00
2008,08,31,03,38,8.00
2008,08,31,03,39,8.00
2008,08,31,03,40,8.00
2008,08,31,03,41,8.00
2008,08,31,03,42,8.00
2008,08,31,03,43,8.10
2008,08,31,03,44,8.10
2008,08,31,03,45,8.10
2008,08,31,03,46,8.10
2008,08,31,03,47,8.10
2008,08,31,03,48,8.10
2008,08,31,03,49,8.10
2008,08,31,03,50,8.10
2008,08,31,03,51,8.10
2008,08,31,03,52,8.10
2008,08,31,03,53,8.10
2008,08,31,03,54,8.10
2008,08,31,03,55,8.10
2008,08,31,03,56,8.10
2008,08,31,03,57,8.10
2008,08,31,03,58,8.10
2008,08,31,03,59,8.10
2008,08,31,04,00,8.10
2008,08,31,04,01,8.10
2008,08,31,04,02,8.10
2008,08,31,04,03,8.10
2008,08,31,04,04,8.10
2008,08,31,04,05,8.10
2008,08,31,04,06,8.10
2008,08,31,04,07,8.10
2008,08,31,04,08,8.10
2008,08,31,04,09,8.10
2008,08,31,04,10,8.10
2008,08,31,04,11,8.10
2008,08,31,04,12,8.10
2008,08,31,04,13,8.10
2008,08,31,04,14,8.10
2008,08,31,04,15,8.10
2008,08,31,04,16,8.10
2008,08,31,04,17,8.00
2008,08,31,04,18,8.00
2008,08,31,04,19,8.00
2008,08,31,04,20,8.00
2008,08,31,04,21,8.00
2008,08,31,04,22,8.00
2008,08,31,04,23,8.00
2008,08,31,04,24,8.00
2008,08,31,04,25,8.00
2008,08,31,04,26,7.90
2008,08,31,04,27,7.90
2008,08,31,04,28,7.90
2008,08,31,04,29,7.90
2008,08,31,04,30,7.90
2008,08,31,04,31,7.90
2008,08,31,04,32,7.90
2008,08,31,04,33,7.80
2008,08,31,04,34,7.80
2008,08,31,04,35,7.80
2008,08,31,04,36,7.80
2008,08,31,04,37,7.80
2008,08,31,04,38,7.80
2008,08,31,04,39,7.80
2008,08,31,04,40,7.80
2008,08,31,04,41,7.80
2008,08,31,04,42,7.80
2008,08,31,04,43,7.80
2008,08,31,04,44,7.70
2008,08,31,04,45,7.70
2008,08,31,04,46,7.70
2008,08,31,04,47,7.70
2008,08,31,04,48,7.70
2008,08,31,04,49,7.70
2008,08,31,04,50,7.70
2008,08,31,04,51,7.70
2008,08,31,04,52,7.70
2008,08,31,04,53,7.70
2008,08,31,04,54,7.70
2008,08,31,04,55,7.70
2008,08,31,04,56,7.60
2008,08,31,04,57,7.60
2008,08,31,04,58,7.60
2008,08,31,04,59,7.60
2008,08,31,05,00,7.60
2008,08,31,05,01,7.60
2008,08,31,05,02,7.60
2008,08,31,05,03,7.60
2008,08,31,05,04,7.60
2008,08,31,05,05,7.60
2008,08,31,05,06,7.60
2008,08,31,05,07,7.60
2008,08,31,05,08,7.60
2008,08,31,05,09,7.60
2008,08,31,05,10,7.60
2008,08,31,05,11,7.60
2008,08,31,05,12,7.60
2008,08,31,05,13,7.60
2008,08,31,05,14,7.60
2008,08,31,05,15,7.50
2008,08,31,05,16,7.50
2008,08,31,05,17,7.50
2008,08,31,05,18,7.50
2008,08,31,05,19,7.50
2008,08,31,05,20,7.50
2008,08,31,05,21,7.50
2008,08,31,05,22,7.50
2008,08,31,05,23,7.50
2008,08,31,05,24,7.50
2008,08,31,05,25,7.50
2008,08,31,05,26,7.50
2008,08,31,05,27,7.50
2008,08,31,05,28,7.50
2008,08,31,05,29,7.50
2008,08,31,05,30,7.50
2008,08,31,05,31,7.50
2008,08,31,05,32,7.50
2008,08,31,05,33,7.40
2008,08,31,05,34,7.40
2008,08,31,05,35,7.40
2008,08,31,05,36,7.50
2008,08,31,05,37,7.50
2008,08,31,05,38,7.50
2008,08,31,05,39,7.60
2008,08,31,05,40,7.60
2008,08,31,05,41,7.60
2008,08,31,05,42,7.70
2008,08,31,05,43,7.70
2008,08,31,05,44,7.70
2008,08,31,05,45,7.70
2008,08,31,05,46,7.70
2008,08,31,05,47,7.70
2008,08,31,05,48,7.70
2008,08,31,05,49,7.70
2008,08,31,05,50,7.70
2008,08,31,05,51,7.70
2008,08,31,05,52,7.80
2008,08,31,05,53,7.80
2008,08,31,05,54,7.70
2008,08,31,05,55,7.70
2008,08,31,05,56,7.70
2008,08,31,05,57,7.70
2008,08,31,05,58,7.70
2008,08,31,05,59,7.80
2008,08,31,06,00,7.80
2008,08,31,06,01,7.80
2008,08,31,06,02,7.90
2008,08,31,06,03,8.00
2008,08,31,06,04,8.10
2008,08,31,06,05,8.20
2008,08,31,06,06,8.20
2008,08,31,06,07,8.20
2008,08,31,06,08,8.20
2008,08,31,06,09,8.20
2008,08,31,06,10,8.20
2008,08,31,06,11,8.20
2008,08,31,06,12,8.30
2008,08,31,06,13,8.30
2008,08,31,06,14,8.40
2008,08,31,06,15,8.60
2008,08,31,06,16,8.60
2008,08,31,06,17,8.70
2008,08,31,06,18,8.70
2008,08,31,06,19,8.80
2008,08,31,06,20,8.80
2008,08,31,06,21,8.90
2008,08,31,06,22,8.90
2008,08,31,06,23,9.00
2008,08,31,06,24,9.00
2008,08,31,06,25,9.00
2008,08,31,06,26,9.00
2008,08,31,06,27,9.00
2008,08,31,06,28,9.10
2008,08,31,06,29,9.10
2008,08,31,06,30,9.10
2008,08,31,06,31,9.30
2008,08,31,06,32,9.30
2008,08,31,06,33,9.40
2008,08,31,06,34,9.50
2008,08,31,06,35,9.50
2008,08,31,06,36,9.60
2008,08,31,06,37,9.70
2008,08,31,06,38,9.90
2008,08,31,06,39,10.10
2008,08,31,06,40,10.30
2008,08,31,06,41,10.50
2008,08,31,06,42,10.60
2008,08,31,06,43,10.70
2008,08,31,06,44,10.80
2008,08,31,06,45,10.90
2008,08,31,06,46,10.90
2008,08,31,06,47,11.00
2008,08,31,06,48,11.00
2008,08,31,06,49,11.10
2008,08,31,06,50,11.10
2008,08,31,06,51,11.10
2008,08,31,06,52,11.20
2008,08,31,06,53,11.20
2008,08,31,06,54,11.30
2008,08,31,06,55,11.30
2008,08,31,06,56,11.30
2008,08,31,06,57,11.30
2008,08,31,06,58,11.40
2008,08,31,06,59,11.40
2008,08,31,07,00,11.40
2008,08,31,07,01,11.50
2008,08,31,07,02,11.50
2008,08,31,07,03,11.50
2008,08,31,07,04,11.60
2008,08,31,07,05,11.60
2008,08,31,07,06,11.60
2008,08,31,07,07,11.60
2008,08,31,07,08,11.60
2008,08,31,07,09,11.60
2008,08,31,07,10,11.60
2008,08,31,07,11,11.60
2008,08,31,07,12,11.60
2008,08,31,07,13,11.70
2008,08,31,07,14,11.70
2008,08,31,07,15,11.70
2008,08,31,07,16,11.70
2008,08,31,07,17,11.70
2008,08,31,07,18,11.70
2008,08,31,07,19,11.70
2008,08,31,07,20,11.70
2008,08,31,07,21,11.70
2008,08,31,07,22,11.70
2008,08,31,07,23,11.70
2008,08,31,07,24,11.70
2008,08,31,07,25,11.70
2008,08,31,07,26,11.80
2008,08,31,07,27,11.80
2008,08,31,07,28,11.80
2008,08,31,07,29,11.80
2008,08,31,07,30,11.80
2008,08,31,07,31,11.80
2008,08,31,07,32,11.80
2008,08,31,07,33,11.80
2008,08,31,07,34,11.80
2008,08,31,07,35,11.80
2008,08,31,07,36,11.80
2008,08,31,07,37,11.80
2008,08,31,07,38,11.80
2008,08,31,07,39,11.80
2008,08,31,07,40,11.90
2008,08,31,07,41,11.90
2008,08,31,07,42,11.90
2008,08,31,07,43,11.90
2008,08,31,07,44,11.90
2008,08,31,07,45,11.90
2008,08,31,07,46,11.90
2008,08,31,07,47,11.90
2008,08,31,07,48,12.00
2008,08,31,07,49,12.00
2008,08,31,07,50,12.00
2008,08,31,07,51,12.00
2008,08,31,07,52,12.00
2008,08,31,07,53,12.00
2008,08,31,07,54,12.00
2008,08,31,07,55,12.00
2008,08,31,07,56,12.00
2008,08,31,07,57,12.10
2008,08,31,07,58,12.10
2008,08,31,07,59,12.10
2008,08,31,08,00,12.10
2008,08,31,08,01,12.10
2008,08,31,08,02,12.10
2008,08,31,08,03,12.10
2008,08,31,08,04,12.10
2008,08,31,08,05,12.10
2008,08,31,08,06,12.10
2008,08,31,08,07,12.10
2008,08,31,08,08,12.10
2008,08,31,08,09,12.10
2008,08,31,08,10,12.10
2008,08,31,08,11,12.00
2008,08,31,08,12,12.00
2008,08,31,08,13,12.00
2008,08,31,08,14,12.00
2008,08,31,08,15,12.00
2008,08,31,08,16,11.90
2008,08,31,08,17,11.90
2008,08,31,08,18,11.90
2008,08,31,08,19,11.90
2008,08,31,08,20,11.90
2008,08,31,08,21,11.90
2008,08,31,08,22,11.90
2008,08,31,08,23,11.90
2008,08,31,08,24,11.90
2008,08,31,08,25,11.90
2008,08,31,08,26,11.90
2008,08,31,08,27,11.90
2008,08,31,08,28,12.00
2008,08,31,08,29,12.00
2008,08,31,08,30,12.10
2008,08,31,08,31,12.10
2008,08,31,08,32,12.10
2008,08,31,08,33,12.10
2008,08,31,08,34,12.10
2008,08,31,08,35,12.10
2008,08,31,08,36,12.20
2008,08,31,08,37,12.20
2008,08,31,08,38,12.20
2008,08,31,08,39,12.20
2008,08,31,08,40,12.30
2008,08,31,08,41,12.30
2008,08,31,08,42,12.30
2008,08,31,08,43,12.40
2008,08,31,08,44,12.40
2008,08,31,08,45,12.50
2008,08,31,08,46,12.50
2008,08,31,08,47,12.50
2008,08,31,08,48,12.60
2008,08,31,08,49,12.60
2008,08,31,08,50,12.60
2008,08,31,08,51,12.60
2008,08,31,08,52,12.60
2008,08,31,08,53,12.60
2008,08,31,08,54,12.60
2008,08,31,08,55,12.60
2008,08,31,08,56,12.60
2008,08,31,08,57,12.60
2008,08,31,08,58,12.60
2008,08,31,08,59,12.60
2008,08,31,09,00,12.60
2008,08,31,09,01,12.60
2008,08,31,09,02,12.60
2008,08,31,09,03,12.60
2008,08,31,09,04,12.70
2008,08,31,09,05,12.70
2008,08,31,09,06,12.70
2008,08,31,09,07,12.70
2008,08,31,09,08,12.70
2008,08,31,09,09,12.70
2008,08,31,09,10,12.70
2008,08,31,09,11,12.70
2008,08,31,09,12,12.70
2008,08,31,09,13,12.70
2008,08,31,09,14,12.70
2008,08,31,09,15,12.70
2008,08,31,09,16,12.70
2008,08,31,09,17,12.70
2008,08,31,09,18,12.80
2008,08,31,09,19,12.80
2008,08,31,09,20,12.80
2008,08,31,09,21,12.80
2008,08,31,09,22,12.80
2008,08,31,09,23,12.80
2008,08,31,09,24,12.80
2008,08,31,09,25,12.90
2008,08,31,09,26,12.90
2008,08,31,09,27,12.90
2008,08,31,09,28,12.90
2008,08,31,09,29,12.90
2008,08,31,09,30,13.00
2008,08,31,09,31,13.00
2008,08,31,09,32,13.00
2008,08,31,09,33,13.10
2008,08,31,09,34,13.10
2008,08,31,09,35,13.20
2008,08,31,09,36,13.20
2008,08,31,09,37,13.20
2008,08,31,09,38,13.20
2008,08,31,09,39,13.20
2008,08,31,09,40,13.30
2008,08,31,09,41,13.30
2008,08,31,09,42,13.30
2008,08,31,09,43,13.30
2008,08,31,09,44,13.40
2008,08,31,09,45,13.40
2008,08,31,09,46,13.40
2008,08,31,09,47,13.40
2008,08,31,09,48,13.40
2008,08,31,09,49,13.40
2008,08,31,09,50,13.40
2008,08,31,09,51,13.40
2008,08,31,09,52,13.40
2008,08,31,09,53,13.40
2008,08,31,09,54,13.50
2008,08,31,09,55,13.50
2008,08,31,09,56,13.60
2008,08,31,09,57,13.60
2008,08,31,09,58,13.60
2008,08,31,09,59,13.60
2008,08,31,10,00,13.60
2008,08,31,10,01,13.60
2008,08,31,10,02,13.60
2008,08,31,10,03,13.60
2008,08,31,10,04,13.60
2008,08,31,10,05,13.60
2008,08,31,10,06,13.70
2008,08,31,10,07,13.70
2008,08,31,10,08,13.70
2008,08,31,10,09,13.70
2008,08,31,10,10,13.80
2008,08,31,10,11,13.80
2008,08,31,10,12,13.80
2008,08,31,10,13,13.80
2008,08,31,10,14,13.90
2008,08,31,10,15,13.90
2008,08,31,10,16,13.90
2008,08,31,10,17,14.00
2008,08,31,10,18,14.00
2008,08,31,10,19,14.10
2008,08,31,10,20,14.10
2008,08,31,10,21,14.10
2008,08,31,10,22,14.10
2008,08,31,10,23,14.10
2008,08,31,10,24,14.20
2008,08,31,10,25,14.20
2008,08,31,10,26,14.20
2008,08,31,10,27,14.20
2008,08,31,10,28,14.20
2008,08,31,10,29,14.20
2008,08,31,10,30,14.20
2008,08,31,10,31,14.20
2008,08,31,10,32,14.30
2008,08,31,10,33,14.30
2008,08,31,10,34,14.30
2008,08,31,10,35,14.30
2008,08,31,10,36,14.30
2008,08,31,10,37,14.30
2008,08,31,10,38,14.30
2008,08,31,10,39,14.30
2008,08,31,10,40,14.40
2008,08,31,10,41,14.40
2008,08,31,10,42,14.40
2008,08,31,10,43,14.40
2008,08,31,10,44,14.50
2008,08,31,10,45,14.50
2008,08,31,10,46,14.60
2008,08,31,10,47,14.60
2008,08,31,10,48,14.70
2008,08,31,10,49,14.90
2008,08,31,10,50,15.00
2008,08,31,10,51,15.00
2008,08,31,10,52,15.20
2008,08,31,10,53,15.30
2008,08,31,10,54,15.40
2008,08,31,10,55,15.50
2008,08,31,10,56,15.60
2008,08,31,10,57,15.80
2008,08,31,10,58,15.90
2008,08,31,10,59,16.00
2008,08,31,11,00,16.10
2008,08,31,11,01,16.20
2008,08,31,11,02,16.20
2008,08,31,11,03,16.30
2008,08,31,11,04,16.30
2008,08,31,11,05,16.40
2008,08,31,11,06,16.40
2008,08,31,11,07,16.50
2008,08,31,11,08,16.50
2008,08,31,11,09,16.50
2008,08,31,11,10,16.60
2008,08,31,11,11,16.60
2008,08,31,11,12,16.70
2008,08,31,11,13,16.70
2008,08,31,11,14,16.70
2008,08,31,11,15,16.80
2008,08,31,11,16,16.80
2008,08,31,11,17,16.80
2008,08,31,11,18,16.80
2008,08,31,11,19,16.80
2008,08,31,11,20,16.80
2008,08,31,11,21,16.70
2008,08,31,11,22,16.70
2008,08,31,11,23,16.70
2008,08,31,11,24,16.70
2008,08,31,11,25,16.70
2008,08,31,11,26,16.70
2008,08,31,11,27,16.70
2008,08,31,11,28,16.70
2008,08,31,11,29,16.60
2008,08,31,11,30,16.50
2008,08,31,11,31,16.60
2008,08,31,11,32,16.60
2008,08,31,11,33,16.50
2008,08,31,11,34,16.50
2008,08,31,11,35,16.50
2008,08,31,11,36,16.50
2008,08,31,11,37,16.40
2008,08,31,11,38,16.40
2008,08,31,11,39,16.50
2008,08,31,11,40,16.70
2008,08,31,11,41,16.80
2008,08,31,11,42,16.90
2008,08,31,11,43,16.90
2008,08,31,11,44,17.00
2008,08,31,11,45,17.10
2008,08,31,11,46,17.10
2008,08,31,11,47,17.20
2008,08,31,11,48,17.30
2008,08,31,11,49,17.30
2008,08,31,11,50,17.40
2008,08,31,11,51,17.50
2008,08,31,11,52,17.50
2008,08,31,11,53,17.60
2008,08,31,11,54,17.60
2008,08,31,11,55,17.60
2008,08,31,11,56,17.50
2008,08,31,11,57,17.40
2008,08,31,11,58,17.20
2008,08,31,11,59,17.20
2008,08,31,12,00,17.20
2008,08,31,12,01,17.20
2008,08,31,12,02,17.20
2008,08,31,12,03,17.30
2008,08,31,12,04,17.40
2008,08,31,12,05,17.40
2008,08,31,12,06,17.40
2008,08,31,12,07,17.40
2008,08,31,12,08,17.40
2008,08,31,12,09,17.50
2008,08,31,12,10,17.60
2008,08,31,12,11,17.50
2008,08,31,12,12,17.40
2008,08,31,12,13,17.30
2008,08,31,12,14,17.20
2008,08,31,12,15,17.30
2008,08,31,12,16,17.40
2008,08,31,12,17,17.60
2008,08,31,12,18,17.70
2008,08,31,12,19,17.80
2008,08,31,12,20,18.00
2008,08,31,12,21,18.10
2008,08,31,12,22,18.10
2008,08,31,12,23,18.10
2008,08,31,12,24,18.20
2008,08,31,12,25,18.30
2008,08,31,12,26,18.30
2008,08,31,12,27,18.40
2008,08,31,12,28,18.40
2008,08,31,12,29,18.50
2008,08,31,12,30,18.50
2008,08,31,12,31,18.50
2008,08,31,12,32,18.50
2008,08,31,12,33,18.60
2008,08,31,12,34,18.60
2008,08,31,12,35,18.50
2008,08,31,12,36,18.50
2008,08,31,12,37,18.40
2008,08,31,12,38,18.40
2008,08,31,12,39,18.40
2008,08,31,12,40,18.20
2008,08,31,12,41,18.20
2008,08,31,12,42,18.20
2008,08,31,12,43,18.20
2008,08,31,12,44,18.10
2008,08,31,12,45,18.20
2008,08,31,12,46,18.00
2008,08,31,12,47,17.90
2008,08,31,12,48,17.80
2008,08,31,12,49,17.80
2008,08,31,12,50,17.80
2008,08,31,12,51,17.80
2008,08,31,12,52,17.70
2008,08,31,12,53,17.60
2008,08,31,12,54,17.60
2008,08,31,12,55,17.50
2008,08,31,12,56,17.40
2008,08,31,12,57,17.40
2008,08,31,12,58,17.40
2008,08,31,12,59,17.30
2008,08,31,13,00,17.30
2008,08,31,13,01,17.40
2008,08,31,13,02,17.50
2008,08,31,13,03,17.60
2008,08,31,13,04,17.60
2008,08,31,13,05,17.60
2008,08,31,13,06,17.70
2008,08,31,13,07,17.90
2008,08,31,13,08,18.00
2008,08,31,13,09,18.10
2008,08,31,13,10,18.30
2008,08,31,13,11,18.40
2008,08,31,13,12,18.60
2008,08,31,13,13,18.70
2008,08,31,13,14,18.80
2008,08,31,13,15,18.90
2008,08,31,13,16,18.90
2008,08,31,13,17,18.90
2008,08,31,13,18,18.90
2008,08,31,13,19,18.90
2008,08,31,13,20,19.00
2008,08,31,13,21,19.10
2008,08,31,13,22,19.20
2008,08,31,13,23,19.20
2008,08,31,13,24,19.20
2008,08,31,13,25,19.30
2008,08,31,13,26,19.30
2008,08,31,13,27,19.30
2008,08,31,13,28,19.20
2008,08,31,13,29,19.20
2008,08,31,13,30,19.20
2008,08,31,13,31,19.20
2008,08,31,13,32,19.20
2008,08,31,13,33,19.10
2008,08,31,13,34,19.00
2008,08,31,13,35,19.00
2008,08,31,13,36,19.00
2008,08,31,13,37,19.00
2008,08,31,13,38,18.90
2008,08,31,13,39,18.90
2008,08,31,13,40,18.90
2008,08,31,13,41,19.00
2008,08,31,13,42,19.00
2008,08,31,13,43,18.80
2008,08,31,13,44,18.70
2008,08,31,13,45,18.60
2008,08,31,13,46,18.50
2008,08,31,13,47,18.40
2008,08,31,13,48,18.40
2008,08,31,13,49,18.50
2008,08,31,13,50,18.60
2008,08,31,13,51,18.70
2008,08,31,13,52,18.80
2008,08,31,13,53,18.80
2008,08,31,13,54,18.80
2008,08,31,13,55,18.90
2008,08,31,13,56,18.90
2008,08,31,13,57,18.90
2008,08,31,13,58,18.80
2008,08,31,13,59,18.70
2008,08,31,14,00,18.50
2008,08,31,14,01,18.40
2008,08,31,14,02,18.50
2008,08,31,14,03,18.50
2008,08,31,14,04,18.40
2008,08,31,14,05,18.20
2008,08,31,14,06,18.10
2008,08,31,14,07,18.00
2008,08,31,14,08,18.00
2008,08,31,14,09,17.90
2008,08,31,14,10,17.80
2008,08,31,14,11,17.80
2008,08,31,14,12,17.90
2008,08,31,14,13,17.90
2008,08,31,14,14,18.00
2008,08,31,14,15,18.10
2008,08,31,14,16,18.20
2008,08,31,14,17,18.30
2008,08,31,14,18,18.50
2008,08,31,14,19,18.60
2008,08,31,14,20,18.60
2008,08,31,14,21,18.70
2008,08,31,14,22,18.70
2008,08,31,14,23,18.90
2008,08,31,14,24,19.00
2008,08,31,14,25,19.00
2008,08,31,14,26,19.00
2008,08,31,14,27,19.00
2008,08,31,14,28,19.00
2008,08,31,14,29,19.00
2008,08,31,14,30,19.00
2008,08,31,14,31,19.00
2008,08,31,14,32,19.00
2008,08,31,14,33,19.10
2008,08,31,14,34,19.20
2008,08,31,14,35,19.20
2008,08,31,14,36,19.20
2008,08,31,14,37,19.30
2008,08,31,14,38,19.40
2008,08,31,14,39,19.50
2008,08,31,14,40,19.60
2008,08,31,14,41,19.70
2008,08,31,14,42,19.80
2008,08,31,14,43,19.80
2008,08,31,14,44,19.80
2008,08,31,14,45,19.70
2008,08,31,14,46,19.70
2008,08,31,14,47,19.80
2008,08,31,14,48,19.90
2008,08,31,14,49,19.90
2008,08,31,14,50,20.00
2008,08,31,14,51,20.10
2008,08,31,14,52,20.10
2008,08,31,14,53,20.00
2008,08,31,14,54,20.00
2008,08,31,14,55,19.90
2008,08,31,14,56,19.90
2008,08,31,14,57,19.90
2008,08,31,14,58,19.90
2008,08,31,14,59,20.00
2008,08,31,15,00,20.00
2008,08,31,15,01,20.10
2008,08,31,15,02,20.10
2008,08,31,15,03,20.20
2008,08,31,15,04,20.20
2008,08,31,15,05,20.20
2008,08,31,15,06,20.10
2008,08,31,15,07,19.90
2008,08,31,15,08,19.70
2008,08,31,15,09,19.50
2008,08,31,15,10,19.30
2008,08,31,15,11,19.30
2008,08,31,15,12,19.30
2008,08,31,15,13,19.30
2008,08,31,15,14,19.40
2008,08,31,15,15,19.50
2008,08,31,15,16,19.60
2008,08,31,15,17,19.70
2008,08,31,15,18,19.80
2008,08,31,15,19,19.90
2008,08,31,15,20,19.90
2008,08,31,15,21,20.00
2008,08,31,15,22,19.90
2008,08,31,15,23,19.80
2008,08,31,15,24,19.70
2008,08,31,15,25,19.60
2008,08,31,15,26,19.60
2008,08,31,15,27,19.60
2008,08,31,15,28,19.60
2008,08,31,15,29,19.60
2008,08,31,15,30,19.70
2008,08,31,15,31,19.60
2008,08,31,15,32,19.50
2008,08,31,15,33,19.40
2008,08,31,15,34,19.40
2008,08,31,15,35,19.30
2008,08,31,15,36,19.20
2008,08,31,15,37,19.20
2008,08,31,15,38,19.30
2008,08,31,15,39,19.30
2008,08,31,15,40,19.30
2008,08,31,15,41,19.30
2008,08,31,15,42,19.30
2008,08,31,15,43,19.30
2008,08,31,15,44,19.40
2008,08,31,15,45,19.50
2008,08,31,15,46,19.60
2008,08,31,15,47,19.70
2008,08,31,15,48,19.80
2008,08,31,15,49,19.90
2008,08,31,15,50,20.00
2008,08,31,15,51,20.00
2008,08,31,15,52,20.10
2008,08,31,15,53,20.20
2008,08,31,15,54,20.30
2008,08,31,15,55,20.30
2008,08,31,15,56,20.40
2008,08,31,15,57,20.40
2008,08,31,15,58,20.50
2008,08,31,15,59,20.60
2008,08,31,16,00,20.60
2008,08,31,16,01,20.60
2008,08,31,16,02,20.60
2008,08,31,16,03,20.50
2008,08,31,16,04,20.40
2008,08,31,16,05,20.40
2008,08,31,16,06,20.40
2008,08,31,16,07,20.30
2008,08,31,16,08,20.20
2008,08,31,16,09,20.20
2008,08,31,16,10,20.10
2008,08,31,16,11,20.00
2008,08,31,16,12,19.90
2008,08,31,16,13,19.90
2008,08,31,16,14,19.90
2008,08,31,16,15,19.90
2008,08,31,16,16,19.90
2008,08,31,16,17,19.90
2008,08,31,16,18,19.90
2008,08,31,16,19,19.80
2008,08,31,16,20,19.70
2008,08,31,16,21,19.70
2008,08,31,16,22,19.70
2008,08,31,16,23,19.80
2008,08,31,16,24,19.80
2008,08,31,16,25,19.90
2008,08,31,16,26,19.90
2008,08,31,16,27,20.00
2008,08,31,16,28,20.00
2008,08,31,16,29,20.00
2008,08,31,16,30,20.00
2008,08,31,16,31,20.00
2008,08,31,16,32,20.00
2008,08,31,16,33,20.00
2008,08,31,16,34,20.00
2008,08,31,16,35,20.10
2008,08,31,16,36,20.10
2008,08,31,16,37,20.10
2008,08,31,16,38,20.10
2008,08,31,16,39,20.20
2008,08,31,16,40,20.30
2008,08,31,16,41,20.30
2008,08,31,16,42,20.30
2008,08,31,16,43,20.20
2008,08,31,16,44,20.10
2008,08,31,16,45,20.10
2008,08,31,16,46,20.10
2008,08,31,16,47,20.00
2008,08,31,16,48,20.00
2008,08,31,16,49,20.00
2008,08,31,16,50,19.90
2008,08,31,16,51,19.90
2008,08,31,16,52,19.90
2008,08,31,16,53,19.80
2008,08,31,16,54,19.90
2008,08,31,16,55,19.90
2008,08,31,16,56,19.90
2008,08,31,16,57,20.00
2008,08,31,16,58,20.10
2008,08,31,16,59,20.20
2008,08,31,17,00,20.20
2008,08,31,17,01,20.20
2008,08,31,17,02,20.20
2008,08,31,17,03,20.20
2008,08,31,17,04,20.20
2008,08,31,17,05,20.20
2008,08,31,17,06,20.30
2008,08,31,17,07,20.30
2008,08,31,17,08,20.30
2008,08,31,17,09,20.30
2008,08,31,17,10,20.20
2008,08,31,17,11,20.20
2008,08,31,17,12,20.10
2008,08,31,17,13,20.00
2008,08,31,17,14,20.00
2008,08,31,17,15,20.00
2008,08,31,17,16,20.00
2008,08,31,17,17,20.00
2008,08,31,17,18,20.10
2008,08,31,17,19,20.10
2008,08,31,17,20,20.10
2008,08,31,17,21,20.10
2008,08,31,17,22,20.00
2008,08,31,17,23,19.90
2008,08,31,17,24,19.90
2008,08,31,17,25,19.80
2008,08,31,17,26,19.70
2008,08,31,17,27,19.60
2008,08,31,17,28,19.60
2008,08,31,17,29,19.60
2008,08,31,17,30,19.60
2008,08,31,17,31,19.70
2008,08,31,17,32,19.70
2008,08,31,17,33,19.80
2008,08,31,17,34,19.80